Location: Unspecified
(0.0000°N, 0.0000°E)
Time: 18:19:50
(UTC+00:00)

STARLINK 1054 - Pass Details

Date: 22 January 2020
Orbit: 548 x 551 km, 53.0° (Epoch: 17 January)

Event Time Altitude Azimuth Distance (km) Brightness Sun altitude
Rises 04:55:00 0° 216° (SW) 2,711 7.0 -17.9°
Reaches altitude 10° 04:57:15 10° 217° (SW) 1,816 6.1 -17.4°
Maximum altitude 05:01:22 78° 303° (WNW) 560 3.5 -16.4°
Drops below altitude 10° 05:05:28 10° 30° (NNE) 1,807 6.4 -15.5°
Sets 05:07:42 0° 32° (NNE) 2,697 7.3 -15.0°
